contact:dominique.lefevre@mio.osupytheas.fr, maurice.libes@osupytheas.fr, didier.mallarino@osupytheas.fr
Project:EMSO http://www.emso-fr.org/EMSO-France
Depth: 2436.0 m
Title:EMSO Ligure Ouest : Data MII capteur AQUADOPP
Date,Latitude,Longitude,X_East,Y_North,Z_Up,Amplitude_X,Amplitude_Y,Amplitude_Z,Batterie,SoundSpeed,Heading,Pitch,Roll,Pressure,TIS,Speed,Direction
, degrees North, degrees East, m.s-1, m.s-1,m.s-1, 1, 1, 1, Volt, m.s-1, degree, degree, degree, dbar, degree_C, m.s-1, degree
2020-02-19T00:04:03,42.805,6.029,0.04,0.007,-0.009,105.0,108.0,102.0,13.4,1505.3,326.9,-0.7,1.8,2470.217,13.31,0.04,80.1
2020-02-19T00:07:03,42.805,6.029,0.035,0.022,-0.025,106.0,110.0,101.0,13.4,1505.3,324.5,-0.7,1.8,2470.236,13.31,0.041,57.8
2020-02-19T00:10:03,42.805,6.029,0.005,0.004,-0.043,105.0,110.0,102.0,13.4,1505.3,325.4,-0.7,1.8,2470.241,13.32,0.006,51.3
2020-02-19T00:13:03,42.805,6.029,0.027,0.002,-0.019,105.0,109.0,101.0,13.4,1505.3,327.2,-0.7,1.8,2470.24,13.32,0.027,85.8
2020-02-19T00:16:03,42.805,6.029,0.037,0.002,-0.039,106.0,111.0,102.0,13.4,1505.3,324.3,-0.7,1.8,2470.147,13.32,0.037,86.9
2020-02-19T00:19:03,42.805,6.029,0.048,0.022,-0.017,105.0,110.0,102.0,13.4,1505.3,324.1,-0.7,1.8,2470.215,13.32,0.052,65.4
2020-02-19T00:22:03,42.805,6.029,0.019,0.002,-0.018,104.0,109.0,101.0,13.4,1505.3,324.0,-0.7,1.8,2470.219,13.32,0.019,84.0
2020-02-19T00:25:03,42.805,6.029,0.027,0.018,-0.035,105.0,110.0,101.0,13.3,1505.3,325.8,-0.7,1.8,2470.22,13.32,0.032,56.3
2020-02-19T00:28:03,42.805,6.029,0.04,0.014,-0.023,104.0,109.0,101.0,13.4,1505.3,325.8,-0.7,1.8,2470.239,13.32,0.042,70.7
2020-02-19T00:31:03,42.805,6.029,0.033,0.018,-0.019,103.0,109.0,102.0,13.4,1505.3,327.3,-0.7,1.9,2470.223,13.32,0.037,61.4
2020-02-19T00:34:03,42.805,6.029,0.046,0.018,-0.006,104.0,110.0,101.0,13.4,1505.3,325.8,-0.7,1.8,2470.219,13.32,0.049,68.6
2020-02-19T00:37:03,42.805,6.029,0.054,-0.006,0.007,106.0,110.0,101.0,13.4,1505.3,326.9,-0.7,1.8,2470.225,13.32,0.054,96.3
2020-02-19T00:40:03,42.805,6.029,0.019,0.011,-0.018,106.0,109.0,102.0,13.3,1505.3,325.7,-0.7,1.9,2470.201,13.32,0.021,59.9
2020-02-19T00:43:03,42.805,6.029,0.024,0.008,-0.037,105.0,112.0,101.0,13.3,1505.3,327.8,-0.7,1.8,2470.215,13.33,0.025,71.6
2020-02-19T00:46:03,42.805,6.029,0.031,0.003,-0.029,104.0,110.0,101.0,13.4,1505.3,327.4,-0.7,1.8,2470.23,13.33,0.031,84.5
2020-02-19T00:49:03,42.805,6.029,0.044,0.022,-0.009,104.0,109.0,102.0,13.3,1505.3,327.6,-0.7,1.8,2470.238,13.33,0.049,63.4
2020-02-19T00:52:03,42.805,6.029,0.027,0.018,-0.023,105.0,109.0,101.0,13.4,1505.3,323.7,-0.7,1.9,2470.206,13.33,0.032,56.3
2020-02-19T00:55:03,42.805,6.029,0.032,-0.014,-0.01,104.0,109.0,102.0,13.3,1505.3,326.9,-0.7,1.8,2470.21,13.33,0.034,113.6
2020-02-19T00:58:03,42.805,6.029,0.031,0.02,-0.051,104.0,111.0,102.0,13.3,1505.3,324.1,-0.7,1.8,2470.218,13.33,0.036,57.2
2020-02-19T01:04:03,42.805,6.029,0.035,0.038,-0.04,105.0,110.0,103.0,13.4,1505.3,323.9,-0.7,1.8,2470.281,13.31,0.051,42.6
2020-02-19T01:07:03,42.805,6.029,0.045,0.008,0.003,106.0,109.0,102.0,13.4,1505.3,325.4,-0.7,1.8,2470.234,13.31,0.045,79.9
2020-02-19T01:10:03,42.805,6.029,0.051,0.018,-0.008,104.0,110.0,102.0,13.4,1505.3,324.9,-0.7,1.8,2470.298,13.32,0.054,70.6
2020-02-19T01:13:03,42.805,6.029,0.012,0.003,-0.027,105.0,110.0,101.0,13.4,1505.3,325.0,-0.7,1.8,2470.247,13.32,0.012,76.0
2020-02-19T01:16:03,42.805,6.029,0.041,0.018,0.012,106.0,109.0,101.0,13.4,1505.3,327.9,-0.7,1.8,2470.23,13.32,0.044,66.3
2020-02-19T01:19:03,42.805,6.029,0.023,0.02,-0.024,105.0,109.0,101.0,13.3,1505.3,327.6,-0.7,1.8,2470.233,13.32,0.03,49.0
2020-02-19T01:22:03,42.805,6.029,0.032,0.01,-0.04,105.0,110.0,102.0,13.3,1505.3,326.8,-0.7,1.8,2470.285,13.32,0.033,72.6
2020-02-19T01:25:03,42.805,6.029,0.031,0.023,0.003,105.0,111.0,102.0,13.3,1505.3,328.3,-0.7,1.9,2470.229,13.32,0.038,53.4
2020-02-19T01:28:03,42.805,6.029,0.009,0.004,-0.05,105.0,110.0,103.0,13.4,1505.3,326.0,-0.7,1.9,2470.207,13.32,0.009,66.0
2020-02-19T01:31:03,42.805,6.029,0.013,0.034,-0.035,106.0,109.0,101.0,13.3,1505.3,324.5,-0.7,1.8,2470.259,13.33,0.036,20.9
2020-02-19T01:34:03,42.805,6.029,0.049,-0.008,-0.01,105.0,110.0,102.0,13.4,1505.3,328.1,-0.7,1.9,2470.229,13.33,0.049,99.3
2020-02-19T01:37:03,42.805,6.029,0.051,0.0,-0.038,104.0,110.0,101.0,13.4,1505.3,324.5,-0.7,1.8,2470.246,13.32,0.051,90.0
2020-02-19T01:40:03,42.805,6.029,0.027,0.033,-0.053,104.0,108.0,101.0,13.4,1505.3,326.2,-0.7,1.8,2470.269,13.32,0.042,39.3
2020-02-19T01:43:03,42.805,6.029,0.032,0.026,-0.062,104.0,109.0,101.0,13.4,1505.3,324.2,-0.7,1.8,2470.228,13.32,0.041,50.9
2020-02-19T01:46:03,42.805,6.029,0.054,0.015,-0.019,104.0,111.0,101.0,13.4,1505.3,327.9,-0.7,1.8,2470.247,13.32,0.056,74.5
2020-02-19T01:49:03,42.805,6.029,0.045,0.001,-0.003,104.0,109.0,102.0,13.4,1505.3,325.7,-0.7,1.8,2470.263,13.32,0.045,88.7
2020-02-19T01:52:03,42.805,6.029,0.009,-0.007,-0.042,104.0,109.0,103.0,13.4,1505.3,326.1,-0.7,1.8,2470.236,13.33,0.011,127.9
2020-02-19T01:55:03,42.805,6.029,0.021,0.007,-0.013,107.0,109.0,100.0,13.3,1505.3,323.5,-0.7,1.8,2470.214,13.32,0.022,71.6
2020-02-19T01:58:03,42.805,6.029,0.03,0.0,-0.043,104.0,109.0,101.0,13.4,1505.3,327.6,-0.7,1.8,2470.245,13.32,0.03,90.0
2020-02-19T02:04:03,42.805,6.029,0.038,0.027,-0.011,104.0,110.0,101.0,13.4,1505.2,323.2,-0.7,1.8,2470.267,13.3,0.046,54.6
2020-02-19T02:07:03,42.805,6.029,0.036,0.01,-0.035,103.0,111.0,102.0,13.4,1505.3,328.2,-0.7,1.8,2470.264,13.31,0.037,74.5
2020-02-19T02:10:03,42.805,6.029,0.044,0.015,-0.036,105.0,110.0,101.0,13.3,1505.3,325.7,-0.7,1.8,2470.283,13.32,0.046,71.2
2020-02-19T02:13:03,42.805,6.029,0.046,0.02,-0.048,105.0,109.0,101.0,13.3,1505.3,325.1,-0.7,1.8,2470.275,13.32,0.05,66.5
2020-02-19T02:16:03,42.805,6.029,0.027,0.044,-0.049,104.0,110.0,102.0,13.4,1505.3,327.4,-0.7,1.8,2470.279,13.32,0.051,31.5
2020-02-19T02:19:03,42.805,6.029,0.029,0.015,-0.007,106.0,110.0,101.0,13.4,1505.3,327.0,-0.7,1.8,2470.258,13.32,0.032,62.6
2020-02-19T02:22:03,42.805,6.029,0.037,-0.006,-0.033,104.0,109.0,101.0,13.4,1505.3,325.0,-0.7,1.8,2470.213,13.32,0.037,99.2
2020-02-19T02:25:03,42.805,6.029,0.052,0.03,-0.022,103.0,111.0,102.0,13.4,1505.3,324.7,-0.7,1.8,2470.254,13.32,0.06,60.0
2020-02-19T02:28:03,42.805,6.029,0.045,0.006,-0.036,104.0,109.0,102.0,13.4,1505.3,326.0,-0.7,1.9,2470.274,13.32,0.045,82.4
2020-02-19T02:31:03,42.805,6.029,0.013,0.012,-0.037,104.0,110.0,101.0,13.4,1505.3,324.8,-0.7,1.8,2470.246,13.32,0.017,47.3
2020-02-19T02:34:03,42.805,6.029,0.015,0.002,-0.021,103.0,111.0,100.0,13.4,1505.3,328.3,-0.7,1.8,2470.28,13.32,0.015,82.4
2020-02-19T02:37:03,42.805,6.029,0.021,0.039,-0.029,104.0,110.0,101.0,13.4,1505.3,325.2,-0.7,1.8,2470.289,13.32,0.044,28.3
2020-02-19T02:40:03,42.805,6.029,0.035,0.013,-0.038,104.0,110.0,101.0,13.4,1505.3,327.5,-0.7,1.8,2470.269,13.32,0.037,69.6
2020-02-19T02:43:03,42.805,6.029,0.02,0.024,-0.005,105.0,111.0,100.0,13.3,1505.3,326.5,-0.7,1.8,2470.292,13.32,0.031,39.8
2020-02-19T02:46:03,42.805,6.029,0.019,0.005,-0.04,103.0,109.0,101.0,13.4,1505.3,324.8,-0.7,1.8,2470.322,13.32,0.019,75.3
2020-02-19T02:49:03,42.805,6.029,0.01,0.027,-0.049,104.0,110.0,101.0,13.3,1505.3,326.8,-0.7,1.9,2470.285,13.32,0.028,20.3
2020-02-19T02:52:03,42.805,6.029,0.005,0.015,-0.042,104.0,111.0,101.0,13.4,1505.3,323.8,-0.7,1.8,2470.251,13.32,0.015,18.4
2020-02-19T02:55:03,42.805,6.029,0.023,0.023,-0.013,104.0,111.0,99.0,13.4,1505.3,323.8,-0.7,1.8,2470.292,13.32,0.032,45.0
2020-02-19T02:58:03,42.805,6.029,0.016,0.012,-0.038,105.0,111.0,101.0,13.3,1505.3,327.0,-0.7,1.8,2470.282,13.32,0.02,53.1
2020-02-19T03:04:03,42.805,6.029,0.021,0.022,-0.016,104.0,110.0,101.0,13.4,1505.3,325.4,-0.8,1.8,2470.33,13.31,0.03,43.7
2020-02-19T03:07:03,42.805,6.029,0.02,-0.001,-0.005,103.0,111.0,102.0,13.4,1505.3,326.7,-0.7,1.9,2470.297,13.31,0.02,92.9
2020-02-19T03:10:03,42.805,6.029,0.003,0.002,-0.049,103.0,110.0,100.0,13.4,1505.3,323.6,-0.7,1.8,2470.311,13.32,0.003,56.3
2020-02-19T03:13:03,42.805,6.029,0.027,0.022,-0.073,104.0,109.0,101.0,13.4,1505.3,323.3,-0.7,1.8,2470.295,13.32,0.034,50.8
2020-02-19T03:16:03,42.805,6.029,0.018,0.004,-0.063,103.0,110.0,100.0,13.4,1505.3,326.8,-0.7,1.8,2470.291,13.32,0.018,77.5
2020-02-19T03:19:03,42.805,6.029,0.016,0.015,-0.034,103.0,112.0,101.0,13.3,1505.3,326.0,-0.7,1.9,2470.302,13.32,0.021,46.9
2020-02-19T03:22:03,42.805,6.029,0.048,0.018,-0.047,104.0,110.0,100.0,13.4,1505.3,323.4,-0.7,1.8,2470.312,13.32,0.051,69.4
2020-02-19T03:25:03,42.805,6.029,0.024,0.018,-0.05,104.0,111.0,100.0,13.4,1505.3,327.8,-0.7,1.8,2470.359,13.32,0.03,53.1
2020-02-19T03:28:03,42.805,6.029,-0.002,0.017,-0.061,103.0,109.0,101.0,13.4,1505.3,326.4,-0.7,1.8,2470.324,13.32,0.017,353.3
2020-02-19T03:31:03,42.805,6.029,0.02,0.004,-0.03,102.0,108.0,101.0,13.4,1505.3,323.5,-0.7,1.9,2470.302,13.32,0.02,78.7
2020-02-19T03:34:03,42.805,6.029,0.022,0.0,-0.014,103.0,109.0,100.0,13.4,1505.3,327.5,-0.7,1.8,2470.334,13.32,0.022,90.0
2020-02-19T03:37:03,42.805,6.029,0.03,0.008,0.006,104.0,109.0,102.0,13.4,1505.3,325.7,-0.7,1.8,2470.309,13.32,0.031,75.1
2020-02-19T03:40:03,42.805,6.029,0.037,0.021,-0.016,103.0,110.0,101.0,13.4,1505.3,323.9,-0.7,1.8,2470.307,13.32,0.042,60.4
2020-02-19T03:43:03,42.805,6.029,0.022,0.014,-0.02,102.0,112.0,100.0,13.4,1505.3,325.9,-0.7,1.8,2470.359,13.32,0.026,57.5
2020-02-19T03:46:03,42.805,6.029,0.0,0.004,-0.061,105.0,112.0,101.0,13.3,1505.3,326.5,-0.7,1.8,2470.344,13.32,0.004,0.0
2020-02-19T03:49:03,42.805,6.029,0.026,0.01,-0.022,103.0,110.0,101.0,13.3,1505.3,323.9,-0.8,1.8,2470.303,13.32,0.027,69.0
2020-02-19T03:52:03,42.805,6.029,0.044,0.013,-0.025,104.0,110.0,101.0,13.4,1505.3,327.9,-0.7,1.8,2470.31,13.33,0.045,73.5
2020-02-19T03:55:03,42.805,6.029,0.048,0.025,0.035,104.0,112.0,101.0,13.4,1505.3,327.2,-0.7,1.9,2470.312,13.32,0.054,62.5
2020-02-19T03:58:03,42.805,6.029,0.039,0.018,-0.062,104.0,111.0,101.0,13.3,1505.3,323.0,-0.7,1.8,2470.331,13.32,0.042,65.2
2020-02-19T04:04:03,42.805,6.029,0.031,0.014,-0.028,105.0,112.0,101.0,13.4,1505.3,327.2,-0.7,1.8,2470.362,13.31,0.034,65.7
2020-02-19T04:07:03,42.805,6.029,0.043,0.012,0.016,105.0,111.0,101.0,13.4,1505.3,323.1,-0.7,1.8,2470.388,13.31,0.044,74.4
2020-02-19T04:10:03,42.805,6.029,0.048,0.012,-0.021,105.0,112.0,101.0,13.4,1505.3,325.6,-0.7,1.8,2470.321,13.32,0.049,76.0
2020-02-19T04:13:03,42.805,6.029,0.01,0.008,-0.01,104.0,110.0,104.0,13.4,1505.3,326.8,-0.6,1.9,2470.363,13.32,0.012,51.3
2020-02-19T04:16:03,42.805,6.029,0.039,0.023,-0.019,104.0,114.0,102.0,13.4,1505.3,327.6,-0.7,1.8,2470.279,13.32,0.045,59.5
2020-02-19T04:19:03,42.805,6.029,0.026,0.01,-0.036,105.0,111.0,101.0,13.4,1505.3,325.6,-0.7,1.8,2470.326,13.32,0.027,69.0
2020-02-19T04:22:03,42.805,6.029,0.041,0.0,-0.053,105.0,110.0,102.0,13.4,1505.3,327.2,-0.7,1.9,2470.338,13.32,0.041,90.0
2020-02-19T04:25:03,42.805,6.029,0.028,0.019,-0.013,104.0,110.0,101.0,13.4,1505.3,326.8,-0.7,1.8,2470.352,13.32,0.033,55.8
2020-02-19T04:28:03,42.805,6.029,0.032,0.013,-0.028,103.0,112.0,100.0,13.4,1505.3,326.7,-0.7,1.8,2470.384,13.32,0.034,67.9
2020-02-19T04:31:03,42.805,6.029,0.031,0.03,-0.031,103.0,111.0,101.0,13.3,1505.3,325.3,-0.7,1.8,2470.337,13.32,0.043,45.9
2020-02-19T04:34:03,42.805,6.029,0.041,0.0,-0.046,104.0,112.0,99.0,13.4,1505.3,327.0,-0.7,1.8,2470.354,13.32,0.041,90.0
2020-02-19T04:37:03,42.805,6.029,0.039,0.031,-0.005,105.0,114.0,101.0,13.3,1505.3,327.2,-0.7,1.8,2470.303,13.32,0.049,51.5
2020-02-19T04:40:03,42.805,6.029,0.012,0.02,-0.027,104.0,113.0,102.0,13.3,1505.3,326.8,-0.7,1.8,2470.352,13.32,0.023,31.0
2020-02-19T04:43:03,42.805,6.029,0.064,0.036,-0.022,105.0,112.0,101.0,13.4,1505.3,326.4,-0.7,1.8,2470.336,13.32,0.073,60.6
2020-02-19T04:46:03,42.805,6.029,0.062,0.019,0.023,103.0,116.0,101.0,13.3,1505.3,326.6,-0.7,1.8,2470.326,13.32,0.064,73.0
2020-02-19T04:49:03,42.805,6.029,0.05,0.024,-0.015,105.0,113.0,101.0,13.4,1505.3,324.4,-0.7,1.8,2470.35,13.32,0.055,64.4
2020-02-19T04:52:03,42.805,6.029,0.017,0.046,-0.06,104.0,114.0,102.0,13.3,1505.3,323.5,-0.7,1.8,2470.322,13.32,0.049,20.3
2020-02-19T04:55:03,42.805,6.029,0.023,0.012,-0.02,105.0,110.0,101.0,13.4,1505.3,326.3,-0.7,1.8,2470.321,13.32,0.025,62.4
2020-02-19T04:58:03,42.805,6.029,0.007,0.039,-0.047,104.0,114.0,102.0,13.4,1505.3,324.8,-0.7,1.9,2470.306,13.32,0.039,10.2
2020-02-19T05:04:03,42.805,6.029,0.03,0.022,-0.043,105.0,112.0,101.0,13.4,1505.2,325.3,-0.7,1.8,2470.371,13.3,0.037,53.7
2020-02-19T05:07:03,42.805,6.029,0.022,0.022,-0.009,105.0,113.0,101.0,13.4,1505.3,323.1,-0.7,1.8,2470.378,13.31,0.031,45.0
2020-02-19T05:10:03,42.805,6.029,0.031,0.008,-0.027,105.0,113.0,102.0,13.3,1505.3,324.5,-0.7,1.8,2470.343,13.32,0.032,75.5
2020-02-19T05:13:03,42.805,6.029,0.034,0.045,-0.02,105.0,113.0,101.0,13.4,1505.3,323.2,-0.7,1.8,2470.378,13.32,0.056,37.1
2020-02-19T05:16:03,42.805,6.029,0.037,0.009,-0.023,104.0,111.0,101.0,13.4,1505.3,327.3,-0.7,1.8,2470.373,13.32,0.038,76.3
2020-02-19T05:19:03,42.805,6.029,0.019,0.028,-0.051,105.0,111.0,102.0,13.3,1505.3,324.7,-0.7,1.8,2470.336,13.32,0.033,34.2
2020-02-19T05:22:03,42.805,6.029,0.037,0.004,-0.015,105.0,114.0,102.0,13.4,1505.3,323.7,-0.7,1.9,2470.344,13.32,0.037,83.8
2020-02-19T05:25:03,42.805,6.029,0.039,0.009,-0.049,103.0,114.0,102.0,13.4,1505.3,325.4,-0.7,1.8,2470.379,13.32,0.04,77.0
2020-02-19T05:28:03,42.805,6.029,0.037,0.02,-0.036,105.0,112.0,101.0,13.3,1505.3,323.8,-0.7,1.8,2470.366,13.32,0.042,61.6
2020-02-19T05:31:03,42.805,6.029,0.041,0.042,-0.038,104.0,112.0,100.0,13.4,1505.3,323.5,-0.7,1.9,2470.311,13.32,0.058,44.3
2020-02-19T05:34:03,42.805,6.029,0.06,-0.002,-0.018,105.0,113.0,101.0,13.4,1505.3,326.1,-0.8,1.8,2470.371,13.32,0.06,91.9
2020-02-19T05:37:03,42.805,6.029,0.059,0.01,-0.022,104.0,113.0,102.0,13.3,1505.3,326.4,-0.7,1.8,2470.328,13.32,0.059,80.4
2020-02-19T05:40:03,42.805,6.029,0.04,0.024,-0.022,104.0,111.0,101.0,13.4,1505.3,325.2,-0.7,1.8,2470.32,13.32,0.046,59.0
2020-02-19T05:43:03,42.805,6.029,0.013,0.005,-0.008,103.0,111.0,102.0,13.4,1505.3,324.6,-0.7,1.8,2470.324,13.32,0.013,69.0
2020-02-19T05:46:03,42.805,6.029,0.052,0.016,-0.016,105.0,113.0,101.0,13.4,1505.3,324.5,-0.7,1.8,2470.327,13.32,0.054,72.9
2020-02-19T05:49:03,42.805,6.029,0.015,0.025,-0.083,104.0,110.0,101.0,13.4,1505.3,323.9,-0.7,1.8,2470.338,13.32,0.029,31.0
2020-02-19T05:52:03,42.805,6.029,0.025,0.001,-0.013,105.0,110.0,102.0,13.3,1505.3,324.1,-0.7,1.8,2470.311,13.32,0.025,87.7
2020-02-19T05:55:03,42.805,6.029,0.03,0.032,-0.022,104.0,111.0,102.0,13.4,1505.3,326.3,-0.7,1.9,2470.34,13.32,0.043,43.1
2020-02-19T05:58:03,42.805,6.029,0.011,0.024,-0.013,105.0,112.0,100.0,13.4,1505.3,325.9,-0.7,1.8,2470.327,13.32,0.026,24.6
2020-02-19T06:04:03,42.805,6.029,0.034,0.031,-0.023,104.0,112.0,101.0,13.4,1505.2,327.4,-0.8,1.8,2470.378,13.3,0.046,47.6
2020-02-19T06:07:03,42.805,6.029,0.049,0.017,-0.022,104.0,113.0,102.0,13.4,1505.3,324.8,-0.7,1.9,2470.346,13.31,0.051,70.9
2020-02-19T06:10:03,42.805,6.029,0.044,0.029,-0.032,105.0,113.0,101.0,13.3,1505.3,324.4,-0.7,1.9,2470.343,13.31,0.052,56.6
2020-02-19T06:13:03,42.805,6.029,0.036,0.015,-0.016,103.0,113.0,102.0,13.4,1505.3,326.9,-0.7,1.9,2470.319,13.32,0.039,67.4
2020-02-19T06:16:03,42.805,6.029,0.05,0.028,-0.006,102.0,112.0,102.0,13.3,1505.3,323.1,-0.8,1.9,2470.339,13.32,0.057,60.7
2020-02-19T06:19:03,42.805,6.029,0.019,0.019,-0.003,103.0,110.0,102.0,13.4,1505.3,323.4,-0.7,1.8,2470.354,13.32,0.026,45.0
2020-02-19T06:22:03,42.805,6.029,0.036,0.001,-0.038,103.0,110.0,101.0,13.3,1505.3,325.0,-0.8,1.8,2470.363,13.32,0.036,88.4
2020-02-19T06:25:03,42.805,6.029,0.037,0.027,-0.005,103.0,113.0,102.0,13.4,1505.3,325.4,-0.7,1.9,2470.351,13.32,0.045,53.9
2020-02-19T06:28:03,42.805,6.029,0.049,0.01,-0.025,106.0,110.0,101.0,13.3,1505.3,326.9,-0.7,1.8,2470.332,13.32,0.05,78.5
2020-02-19T06:31:03,42.805,6.029,0.037,0.017,-0.03,104.0,111.0,101.0,13.4,1505.3,327.1,-0.7,1.8,2470.34,13.32,0.04,65.3
2020-02-19T06:34:03,42.805,6.029,0.031,0.027,-0.013,105.0,113.0,101.0,13.4,1505.3,324.5,-0.7,1.9,2470.309,13.32,0.041,48.9
2020-02-19T06:37:03,42.805,6.029,0.043,0.01,-0.031,103.0,112.0,102.0,13.3,1505.3,324.2,-0.7,1.9,2470.339,13.32,0.044,76.9
2020-02-19T06:40:03,42.805,6.029,0.045,0.013,-0.032,104.0,114.0,101.0,13.3,1505.3,327.0,-0.7,1.8,2470.301,13.32,0.046,73.9
2020-02-19T06:43:03,42.805,6.029,0.044,0.005,-0.064,105.0,113.0,100.0,13.3,1505.3,328.4,-0.7,1.8,2470.298,13.32,0.044,83.5
2020-02-19T06:46:03,42.805,6.029,0.043,0.012,-0.044,103.0,112.0,101.0,13.3,1505.3,327.3,-0.7,1.8,2470.3,13.32,0.044,74.4
2020-02-19T06:49:03,42.805,6.029,0.044,0.006,-0.027,104.0,112.0,101.0,13.3,1505.3,325.1,-0.7,1.8,2470.313,13.32,0.044,82.2
2020-02-19T06:52:03,42.805,6.029,0.055,0.014,-0.007,104.0,111.0,100.0,13.4,1505.3,326.1,-0.7,1.8,2470.294,13.32,0.056,75.7
2020-02-19T06:55:03,42.805,6.029,0.043,0.011,-0.036,104.0,114.0,101.0,13.4,1505.3,323.4,-0.7,1.8,2470.32,13.32,0.044,75.7
2020-02-19T06:58:03,42.805,6.029,0.035,0.013,-0.016,105.0,113.0,101.0,13.3,1505.3,323.8,-0.7,1.8,2470.265,13.32,0.037,69.6
2020-02-19T07:04:03,42.805,6.029,0.027,0.019,-0.031,104.0,112.0,101.0,13.4,1505.2,324.6,-0.7,1.8,2470.353,13.3,0.033,54.9
2020-02-19T07:07:03,42.805,6.029,0.033,0.003,-0.028,104.0,115.0,100.0,13.4,1505.3,327.4,-0.7,1.8,2470.361,13.31,0.033,84.8
2020-02-19T07:10:03,42.805,6.029,0.038,0.012,-0.023,104.0,113.0,102.0,13.4,1505.3,326.4,-0.7,1.8,2470.329,13.32,0.039,72.5
2020-02-19T07:13:03,42.805,6.029,0.039,0.026,-0.021,104.0,115.0,100.0,13.4,1505.3,324.4,-0.7,1.8,2470.312,13.32,0.046,56.3
2020-02-19T07:19:03,42.805,6.029,0.032,0.017,-0.009,104.0,114.0,101.0,13.3,1505.2,323.6,-0.7,1.8,2470.378,13.3,0.036,62.0
2020-02-19T07:22:03,42.805,6.029,0.022,0.025,-0.022,104.0,113.0,101.0,13.4,1505.3,323.4,-0.7,1.9,2470.367,13.31,0.033,41.3
2020-02-19T07:25:03,42.805,6.029,0.039,0.011,-0.028,104.0,112.0,101.0,13.4,1505.3,324.0,-0.7,1.8,2470.326,13.31,0.04,74.3
2020-02-19T07:28:03,42.805,6.029,0.034,0.009,-0.035,104.0,113.0,101.0,13.4,1505.3,323.4,-0.7,1.9,2470.37,13.32,0.035,75.2
2020-02-19T07:31:03,42.805,6.029,0.046,0.025,-0.023,103.0,113.0,102.0,13.4,1505.3,325.2,-0.7,1.8,2470.305,13.32,0.052,61.5
2020-02-19T07:34:03,42.805,6.029,0.035,0.021,0.022,104.0,115.0,100.0,13.4,1505.3,327.8,-0.7,1.8,2470.322,13.32,0.04,59.0
2020-02-19T07:37:03,42.805,6.029,0.011,0.015,-0.013,105.0,112.0,102.0,13.4,1505.3,324.5,-0.7,1.8,2470.288,13.32,0.018,36.3
2020-02-19T07:40:03,42.805,6.029,0.043,0.022,-0.038,103.0,113.0,103.0,13.4,1505.3,325.2,-0.7,1.9,2470.313,13.32,0.048,62.9
2020-02-19T07:43:03,42.805,6.029,0.023,0.003,-0.055,104.0,117.0,101.0,13.3,1505.3,326.1,-0.7,1.8,2470.346,13.32,0.023,82.6
2020-02-19T07:46:03,42.805,6.029,0.038,0.021,-0.004,103.0,113.0,101.0,13.4,1505.3,326.1,-0.7,1.8,2470.305,13.32,0.043,61.1
2020-02-19T07:49:03,42.805,6.029,0.027,0.019,-0.025,104.0,116.0,101.0,13.4,1505.3,323.0,-0.7,1.8,2470.308,13.32,0.033,54.9
2020-02-19T07:52:03,42.805,6.029,0.038,0.019,-0.045,103.0,114.0,101.0,13.3,1505.3,327.3,-0.7,1.8,2470.293,13.32,0.042,63.4
2020-02-19T07:55:03,42.805,6.029,0.038,0.012,-0.039,106.0,115.0,101.0,13.3,1505.3,327.6,-0.7,1.8,2470.324,13.32,0.039,72.5
2020-02-19T07:58:03,42.805,6.029,0.007,0.023,-0.025,104.0,113.0,101.0,13.4,1505.3,325.3,-0.8,1.8,2470.309,13.32,0.024,16.9
2020-02-19T08:04:03,42.805,6.029,0.05,0.032,-0.004,103.0,111.0,101.0,13.3,1505.2,324.6,-0.7,1.8,2470.355,13.3,0.059,57.4
2020-02-19T08:07:03,42.805,6.029,0.026,0.015,-0.043,104.0,118.0,101.0,13.4,1505.3,325.6,-0.7,1.8,2470.331,13.31,0.03,60.0
2020-02-19T08:10:03,42.805,6.029,0.043,0.029,-0.026,103.0,117.0,103.0,13.4,1505.3,322.7,-0.8,1.8,2470.299,13.31,0.051,56.0
2020-02-19T08:13:03,42.805,6.029,0.05,0.026,-0.022,105.0,118.0,102.0,13.4,1505.3,324.8,-0.7,1.8,2470.297,13.32,0.056,62.5
2020-02-19T08:16:03,42.805,6.029,0.029,0.016,-0.032,104.0,114.0,101.0,13.4,1505.3,325.1,-0.7,1.8,2470.34,13.32,0.033,61.1
2020-02-19T08:19:03,42.805,6.029,0.043,0.01,-0.03,104.0,118.0,102.0,13.4,1505.3,324.8,-0.7,1.8,2470.339,13.32,0.044,76.9
2020-02-19T08:22:03,42.805,6.029,0.031,0.008,-0.032,105.0,116.0,101.0,13.4,1505.3,326.0,-0.7,1.8,2470.273,13.32,0.032,75.5
2020-02-19T08:25:03,42.805,6.029,0.032,0.028,-0.011,105.0,117.0,101.0,13.4,1505.3,326.2,-0.7,1.8,2470.322,13.32,0.042,48.8
2020-02-19T08:28:03,42.805,6.029,0.014,0.036,-0.029,105.0,114.0,102.0,13.4,1505.3,325.7,-0.7,1.8,2470.239,13.32,0.038,21.2
2020-02-19T08:31:03,42.805,6.029,0.038,0.023,-0.044,105.0,115.0,101.0,13.4,1505.3,324.2,-0.7,1.8,2470.294,13.32,0.044,58.8
2020-02-19T08:34:03,42.805,6.029,0.022,0.018,-0.017,103.0,113.0,101.0,13.4,1505.3,324.4,-0.7,1.8,2470.259,13.32,0.028,50.7
2020-02-19T08:37:03,42.805,6.029,0.039,-0.014,-0.034,103.0,113.0,100.0,13.3,1505.3,323.2,-0.7,1.9,2470.243,13.32,0.041,109.7
2020-02-19T08:40:03,42.805,6.029,0.025,0.014,-0.031,105.0,114.0,101.0,13.3,1505.3,326.9,-0.7,1.8,2470.301,13.32,0.028,60.7
2020-02-19T08:43:03,42.805,6.029,0.044,-0.006,-0.051,103.0,115.0,101.0,13.4,1505.3,327.9,-0.7,1.9,2470.317,13.32,0.044,97.8
2020-02-19T08:46:03,42.805,6.029,0.027,-0.003,-0.022,104.0,114.0,100.0,13.4,1505.3,327.0,-0.7,1.8,2470.263,13.32,0.027,96.3
2020-02-19T08:49:03,42.805,6.029,0.039,0.03,-0.012,102.0,112.0,102.0,13.4,1505.3,325.4,-0.7,1.8,2470.233,13.32,0.049,52.4
2020-02-19T08:52:03,42.805,6.029,0.051,-0.007,-0.036,102.0,110.0,102.0,13.4,1505.3,326.1,-0.7,1.8,2470.28,13.32,0.051,97.8
2020-02-19T08:55:03,42.805,6.029,0.022,0.017,-0.013,103.0,114.0,100.0,13.3,1505.3,323.8,-0.7,1.8,2470.291,13.32,0.027,52.3
2020-02-19T08:58:03,42.805,6.029,0.025,0.009,-0.036,104.0,112.0,101.0,13.3,1505.3,325.9,-0.7,1.9,2470.271,13.32,0.026,70.2
2020-02-19T09:04:03,42.805,6.029,0.035,0.016,-0.044,103.0,113.0,102.0,13.4,1505.2,326.6,-0.7,1.8,2470.3,13.3,0.038,65.4
2020-02-19T09:07:03,42.805,6.029,0.032,-0.004,-0.045,103.0,112.0,102.0,13.4,1505.3,326.4,-0.8,1.8,2470.285,13.31,0.032,97.1
2020-02-19T09:10:03,42.805,6.029,0.055,0.011,-0.017,103.0,113.0,102.0,13.4,1505.3,327.2,-0.7,1.8,2470.266,13.31,0.056,78.7
2020-02-19T09:13:03,42.805,6.029,0.033,0.028,-0.019,103.0,117.0,101.0,13.4,1505.3,325.9,-0.7,1.8,2470.3,13.32,0.043,49.7
2020-02-19T09:16:03,42.805,6.029,0.047,0.005,-0.01,103.0,117.0,101.0,13.4,1505.3,326.9,-0.7,1.8,2470.298,13.32,0.047,83.9
2020-02-19T09:19:03,42.805,6.029,0.029,0.013,0.014,103.0,117.0,101.0,13.3,1505.3,324.1,-0.7,1.8,2470.287,13.32,0.031,65.9
2020-02-19T09:22:03,42.805,6.029,0.045,-0.007,-0.01,104.0,116.0,101.0,13.4,1505.3,326.6,-0.7,1.9,2470.259,13.32,0.045,98.8
2020-02-19T09:25:03,42.805,6.029,0.041,0.011,-0.029,104.0,114.0,100.0,13.4,1505.3,323.0,-0.7,1.8,2470.288,13.32,0.042,75.0
2020-02-19T09:28:03,42.805,6.029,0.049,0.011,0.019,103.0,113.0,102.0,13.4,1505.3,325.5,-0.7,1.8,2470.277,13.32,0.05,77.3
2020-02-19T09:31:03,42.805,6.029,0.055,0.024,-0.009,103.0,112.0,101.0,13.3,1505.3,325.9,-0.7,1.8,2470.307,13.32,0.06,66.4
2020-02-19T09:34:03,42.805,6.029,0.043,0.025,-0.066,104.0,115.0,100.0,13.3,1505.3,323.1,-0.7,1.8,2470.247,13.32,0.049,59.8
2020-02-19T09:37:03,42.805,6.029,0.023,0.02,-0.05,103.0,114.0,101.0,13.3,1505.3,324.2,-0.7,1.9,2470.242,13.32,0.03,49.0
2020-02-19T09:40:03,42.805,6.029,0.036,0.007,-0.024,103.0,114.0,101.0,13.4,1505.3,326.9,-0.7,1.9,2470.259,13.32,0.036,79.0
2020-02-19T09:43:03,42.805,6.029,0.04,-0.027,-0.008,103.0,114.0,100.0,13.4,1505.3,327.2,-0.7,1.8,2470.264,13.32,0.048,124.0
2020-02-19T09:46:03,42.805,6.029,0.032,-0.005,-0.029,104.0,112.0,100.0,13.3,1505.3,327.0,-0.7,1.9,2470.244,13.32,0.032,98.9
2020-02-19T09:49:03,42.805,6.029,0.036,0.025,0.007,104.0,113.0,101.0,13.3,1505.3,325.7,-0.7,1.8,2470.209,13.32,0.043,55.2
2020-02-19T09:52:03,42.805,6.029,0.039,0.015,-0.006,103.0,116.0,101.0,13.3,1505.3,326.7,-0.7,1.9,2470.244,13.32,0.041,69.0
2020-02-19T09:55:03,42.805,6.029,0.027,0.014,-0.027,103.0,118.0,102.0,13.4,1505.3,326.0,-0.7,1.8,2470.233,13.32,0.03,62.6
2020-02-19T09:58:03,42.805,6.029,0.06,-0.011,-0.023,103.0,112.0,101.0,13.3,1505.3,326.0,-0.7,1.8,2470.239,13.32,0.06,100.4
2020-02-19T10:04:03,42.805,6.029,0.043,-0.006,-0.039,103.0,115.0,101.0,13.3,1505.2,326.7,-0.7,1.8,2470.295,13.3,0.043,97.9
2020-02-19T10:07:03,42.805,6.029,0.055,0.008,-0.014,103.0,111.0,101.0,13.3,1505.3,326.3,-0.7,1.8,2470.267,13.31,0.055,81.7